Вернуться в каталог

STARLINK-31949

АктивенСвязьVLEO
NORAD 59891·PAYLOAD·🇺🇸 United States

Запущен May 28, 2024 с Cape Canaveral Space Force Station

Loading…

Ближайшие Пролёты (ближайшие 24 часа)

TLE

СвежийSource: CelesTrak SupGP

Эпоха: Sep 15, 2026, 02:27 UTC

1 59891C 24100G   26258.10256944  .00063880  00000+0  23136-2 0  2582
2 59891  42.9993 135.6357 0001395 272.3610 162.2677 15.27547997    17

Отслеживайте STARLINK-31949 в реальном времени с AllMySat

Download on the App Store